Theta_e
322 322 321 320 320 319 319 318 318 317 316 316 316 316 316 316 315 315 314 314 314 314 314 314 314 314 314 313 313 313 313 313 313 312 312 311 311 310 309 309 309 309 309 309 310 310 310 310 311 313 314 315 316 316 317 317 317 317 317 316 316 315 314
322 321 320 320 320 320 319 318 318 317 316 316 316 316 316 315 316 315 315 314 314 314 314 314 314 314 314 313 312 313 313 313 313 312 312 311 310 310 309 309 309 309 309 309 310 310 310 311 312 313 313 314 315 316 317 317 317 317 317 316 316 315 313
321 321 320 320 320 320 320 319 318 317 317 317 317 317 316 316 316 315 315 315 315 315 315 315 314 314 314 313 312 314 313 313 312 312 312 311 310 309 309 309 309 309 310 309 310 311 311 312 313 313 313 315 315 316 316 317 317 316 316 316 316 315 313
320 320 320 320 320 319 320 319 319 318 317 317 317 317 316 316 316 316 315 316 315 315 315 314 314 313 313 313 312 313 313 312 312 312 311 310 310 309 308 308 308 309 310 309 311 312 312 312 313 312 314 314 314 315 314 315 317 316 316 316 316 315 313
320 319 319 320 319 319 319 319 319 319 318 317 317 317 316 316 316 316 316 315 315 314 314 313 313 313 313 312 312 312 312 312 311 311 311 310 310 309 308 308 308 309 309 309 311 312 312 312 312 312 314 314 314 314 313 314 316 315 315 316 316 315 314
320 319 319 319 318 318 318 319 319 318 318 317 317 316 316 316 316 315 315 314 314 314 313 312 311 312 313 312 312 312 311 311 311 311 311 310 310 309 308 308 308 309 309 309 311 311 311 312 312 312 313 313 314 314 313 313 314 314 314 315 316 315 314
320 320 319 318 318 318 318 319 318 317 317 317 317 316 316 315 315 314 314 314 313 313 312 311 310 312 313 313 313 312 311 311 311 311 310 310 310 309 308 308 308 309 309 310 311 311 311 312 312 312 312 312 312 312 312 311 312 313 313 314 315 315 314
320 320 319 318 318 318 318 318 317 317 317 316 316 316 315 315 314 314 313 313 313 312 310 309 310 313 314 313 313 313 312 311 311 311 310 310 309 308 309 308 307 308 309 310 311 311 311 312 313 313 312 312 311 311 311 310 311 312 312 313 314 315 314
320 319 319 319 318 318 318 317 317 317 317 316 316 316 315 315 314 313 313 313 312 311 309 310 311 313 313 313 313 313 312 311 311 310 310 310 309 309 309 308 307 308 309 310 311 311 311 311 312 312 312 312 311 310 310 310 311 311 311 312 314 314 314
320 319 319 319 318 318 317 317 317 317 317 317 316 315 315 314 314 313 312 313 312 310 309 310 311 312 313 313 313 313 313 312 311 311 310 310 310 309 308 307 306 308 309 310 311 311 310 310 311 310 310 312 312 311 310 310 310 310 310 312 313 314 314
319 319 319 318 318 318 317 317 318 317 317 317 316 315 314 314 314 313 312 312 312 309 308 310 311 312 312 313 313 313 312 311 311 311 310 310 310 308 307 306 307 308 309 310 311 310 310 310 310 310 309 310 310 310 310 310 310 310 310 311 313 314 314
318 318 318 318 318 317 317 317 318 318 317 317 316 316 315 314 313 313 313 312 311 309 308 309 311 311 312 312 312 312 312 311 311 310 309 309 309 307 307 307 307 308 309 310 310 310 310 310 310 309 309 309 309 309 310 310 310 310 310 311 312 314 313
318 318 318 318 317 317 317 316 317 317 317 317 316 315 315 314 313 313 312 311 311 309 308 309 310 310 312 312 312 311 311 309 309 308 307 307 307 307 307 307 307 308 310 310 310 309 309 310 310 310 310 309 309 308 309 310 310 309 310 311 311 313 313
318 318 318 318 317 317 317 316 316 317 317 316 316 315 314 314 313 312 312 311 310 309 307 308 309 310 311 312 311 310 309 308 307 307 306 305 306 307 306 307 307 308 310 310 310 310 309 309 310 310 310 309 309 309 308 310 310 310 310 310 311 313 312
318 318 318 319 318 317 317 317 317 317 316 316 316 315 314 313 312 312 312 311 310 309 307 306 308 310 311 311 311 309 307 307 307 307 305 304 305 306 306 307 307 308 309 310 310 310 310 309 310 310 309 309 309 309 308 309 310 311 310 311 312 312 312
318 318 318 319 318 318 318 317 317 317 316 316 316 315 314 313 312 312 311 310 310 309 307 306 307 309 310 309 309 308 307 308 308 307 306 303 303 305 306 307 307 308 309 310 310 310 310 310 310 309 309 309 309 308 308 309 310 311 311 312 312 312 313
318 318 318 318 318 318 318 317 317 316 316 316 316 315 314 313 312 311 311 310 310 309 307 305 306 308 309 308 308 307 307 308 308 307 306 304 302 304 306 307 308 308 309 310 310 310 310 310 310 309 309 309 309 308 308 309 310 310 311 311 311 312 313
319 318 318 318 318 318 318 318 317 316 316 316 315 315 314 313 312 311 311 310 309 309 307 305 305 307 308 308 308 307 307 307 307 306 307 305 302 303 306 307 307 308 309 310 310 310 310 310 310 310 309 309 309 308 308 309 310 310 310 311 311 311 311
320 319 319 319 318 318 318 318 317 317 316 316 315 315 314 313 312 311 311 310 309 309 307 305 304 305 306 307 308 308 307 308 308 307 306 305 302 302 305 306 307 308 308 309 310 310 310 310 310 309 310 309 308 308 308 309 310 310 310 311 311 311 311
321 320 320 319 319 319 318 317 317 316 316 316 315 315 314 313 313 312 311 310 309 309 308 306 303 303 304 306 307 308 308 308 308 307 307 306 303 302 304 305 306 307 308 308 309 310 310 310 310 309 309 309 309 308 308 309 310 310 311 311 311 311 311
322 320 320 320 319 319 318 317 317 316 316 316 315 315 314 314 313 312 311 310 309 309 308 307 304 302 303 305 306 307 308 308 308 308 307 307 304 302 303 305 305 306 306 306 307 309 309 309 309 309 309 309 308 308 309 310 310 310 311 311 311 311 311
323 321 320 320 320 320 319 318 317 317 316 316 315 315 314 314 313 312 311 310 309 309 308 307 305 301 300 303 306 307 307 308 308 307 307 306 305 302 303 305 304 303 303 303 306 308 307 306 307 309 309 309 308 308 309 310 310 310 311 311 311 311 311
324 322 321 320 320 320 320 319 318 317 316 316 315 315 315 314 313 312 311 310 310 309 308 307 306 302 297 297 302 305 306 308 308 307 306 306 304 302 302 305 305 303 303 305 307 307 305 305 306 307 307 307 307 308 309 310 310 310 311 311 311 311 311
326 324 322 321 320 320 320 319 318 317 317 316 316 315 315 314 313 312 311 311 310 310 309 307 307 305 299 294 297 302 306 308 308 307 306 306 304 302 302 304 305 305 306 307 307 307 306 305 306 306 305 305 306 307 308 309 310 310 310 311 311 311 311
326 325 323 322 321 320 320 319 319 318 317 317 316 316 315 314 313 312 311 311 311 310 310 308 307 306 302 295 294 299 304 307 308 307 306 305 304 302 302 305 306 306 306 306 307 308 308 307 307 306 306 306 306 306 306 307 309 310 310 310 311 311 310
326 325 325 323 322 321 320 320 320 319 318 317 316 317 316 314 313 313 312 311 311 310 310 309 307 306 304 297 293 295 301 306 308 307 306 305 303 302 303 305 306 306 306 306 307 308 309 309 308 307 307 308 308 307 307 307 308 309 309 310 310 310 310
327 326 325 324 323 322 321 321 320 320 319 318 317 317 316 314 313 313 312 311 311 311 310 308 307 306 305 300 293 292 299 306 307 306 306 305 303 302 303 305 306 306 307 307 307 307 308 309 309 308 309 309 308 308 308 307 308 308 309 309 309 309 309
326 326 325 324 324 323 322 321 321 320 320 319 319 318 316 315 314 313 313 311 311 311 310 308 307 306 305 301 293 291 299 306 307 306 305 304 303 302 303 305 306 306 307 307 305 305 306 308 309 308 308 308 308 309 308 307 307 308 308 308 308 308 309
326 325 325 324 324 323 322 322 321 321 320 319 319 318 315 314 314 314 314 312 311 311 310 308 307 305 306 301 293 293 301 307 306 306 306 304 302 301 303 305 305 305 306 306 305 304 305 307 309 308 308 308 308 309 308 307 306 307 307 307 307 308 309
325 325 324 324 323 322 322 322 321 321 320 320 319 317 315 314 314 314 314 313 312 311 310 309 306 306 306 299 292 296 304 306 306 306 305 303 302 301 302 303 304 306 306 305 304 304 304 306 308 308 307 308 307 308 308 308 307 307 307 307 307 307 309
324 324 324 323 322 322 321 321 321 321 320 320 318 316 315 316 315 314 314 314 313 311 311 309 306 306 305 297 291 298 305 305 305 306 305 303 302 301 300 300 302 304 304 302 302 304 304 306 308 307 306 307 307 307 308 308 308 308 308 308 308 308 309
323 323 323 323 322 322 321 321 321 321 319 319 318 317 316 316 316 315 314 314 313 311 310 310 307 306 305 297 291 296 303 304 305 306 304 302 301 301 301 300 300 300 299 297 298 302 304 306 307 307 306 306 307 307 308 308 308 309 309 309 309 309 309
324 324 323 323 323 322 322 321 321 321 320 319 318 318 317 316 315 315 315 314 313 310 310 310 308 306 306 300 292 294 301 304 304 306 304 301 301 301 301 302 300 297 296 295 295 298 301 304 306 307 307 307 307 307 307 308 308 308 309 309 309 309 309
324 324 324 324 323 323 323 323 322 321 320 320 318 318 317 317 315 315 314 313 312 310 309 309 309 307 307 303 294 291 298 303 304 305 304 300 300 300 301 303 300 296 295 295 294 295 298 302 305 307 306 306 305 306 307 308 308 308 309 309 309 309 309
324 324 323 324 324 324 323 323 323 322 321 320 319 318 318 317 316 316 315 313 311 310 308 308 309 308 307 304 296 290 295 302 304 305 303 300 300 301 301 302 301 296 295 296 295 294 296 300 303 305 305 304 304 304 307 308 307 308 309 308 308 308 308
322 322 322 323 323 323 323 323 322 322 321 320 319 319 318 318 317 316 316 314 312 311 308 307 308 308 307 305 297 290 294 301 304 304 302 300 300 301 301 302 300 297 295 296 295 294 295 299 302 303 303 303 303 304 307 307 307 308 308 308 308 308 308
319 319 320 321 321 322 322 322 322 321 320 320 320 319 319 319 318 317 316 315 314 312 310 308 308 308 308 306 298 291 294 300 302 302 301 300 300 301 301 301 299 297 296 296 295 294 294 298 301 302 302 303 303 305 307 307 307 308 308 308 308 308 308
Wind_Speed
5 4 3 3 3 4 4 5 5 5 5 5 6 7 7 7 7 8 9 8 9 10 10 10 11 11 12 13 13 12 12 11 11 12 13 15 15 14 15 14 13 13 13 12 11 10 9 10 14 16 18 22 19 15 14 15 16 15 17 19 18 21 24
4 4 4 4 3 4 4 5 5 5 5 5 5 6 7 7 7 7 8 8 9 10 10 10 10 10 11 12 12 11 11 11 10 11 12 13 15 15 15 15 13 14 14 13 13 13 10 9 10 11 15 20 19 17 16 16 16 15 16 18 17 19 23
3 3 4 4 3 4 4 4 3 4 4 5 5 6 6 6 6 6 7 8 9 9 9 9 9 10 10 11 11 10 10 10 10 10 11 12 14 15 15 14 14 14 13 12 13 14 11 9 10 10 13 15 15 16 17 14 14 15 16 17 17 18 22
4 3 4 4 4 3 3 2 2 3 4 4 5 4 5 5 5 6 7 8 8 8 9 9 10 10 9 9 9 9 9 9 9 10 10 11 13 14 14 13 13 14 13 12 13 14 11 9 10 10 12 16 15 15 18 16 11 13 15 16 17 18 21
3 3 3 3 3 3 2 2 2 3 4 4 4 3 4 4 5 5 6 7 7 7 9 10 10 9 8 8 8 9 9 9 9 10 10 12 13 14 14 13 12 13 14 14 14 14 13 12 12 9 10 15 14 14 22 19 11 13 15 15 17 18 20
3 3 3 3 2 2 2 2 3 3 3 3 3 3 3 4 5 5 6 7 7 8 10 10 10 8 7 7 8 8 9 8 9 9 10 12 13 14 15 13 12 12 14 14 14 14 14 14 13 10 11 14 13 12 18 18 12 14 15 15 17 19 20
3 3 3 3 2 3 3 3 3 3 3 3 3 3 4 4 4 5 5 6 7 9 10 9 8 6 5 6 7 8 8 7 8 9 10 11 12 14 14 13 12 12 13 14 14 14 14 14 13 11 11 13 13 12 14 17 14 12 14 15 17 19 20
4 3 3 3 3 4 4 3 3 3 3 4 4 3 4 4 4 4 5 6 8 9 9 8 7 5 5 6 6 7 7 7 7 8 10 11 12 13 13 13 11 11 13 13 13 14 13 12 12 13 11 10 12 11 11 14 14 12 16 16 15 18 21
5 4 4 4 4 5 4 4 4 4 4 4 4 4 4 4 4 4 5 6 7 8 7 6 6 5 5 6 6 7 7 6 7 8 9 10 12 12 12 11 11 11 12 13 12 13 13 12 11 12 11 10 10 10 10 11 10 11 17 18 15 17 21
6 6 5 5 5 5 5 5 5 5 5 5 5 4 4 4 4 4 5 6 7 7 6 5 5 4 5 5 6 6 6 7 7 7 8 10 11 11 10 10 10 10 12 12 12 12 13 13 12 12 12 11 11 10 9 10 9 10 15 18 15 16 20
7 6 6 5 5 5 6 6 6 6 6 5 5 5 5 5 4 4 5 6 6 6 6 5 5 4 5 5 5 6 6 7 7 7 8 9 10 10 9 9 8 9 11 11 11 12 12 13 13 13 14 13 13 11 10 10 9 10 14 17 16 15 19
7 7 6 6 6 6 7 7 7 7 6 6 6 5 5 5 5 5 5 5 6 6 5 5 5 4 4 4 5 5 6 7 8 8 8 8 8 9 9 8 7 8 10 10 11 12 13 13 13 14 15 15 16 15 14 11 8 11 15 16 15 15 18
7 7 7 7 7 7 7 7 7 7 7 7 6 6 6 6 5 5 5 5 6 6 5 4 4 4 4 4 4 5 6 7 7 7 8 8 7 8 9 8 7 8 9 10 11 11 12 13 13 14 15 16 17 17 18 14 9 10 14 15 14 14 16
8 8 8 8 8 8 7 7 7 6 7 7 7 7 7 6 6 5 5 5 5 5 4 4 4 4 3 3 3 4 6 6 7 7 8 8 7 7 8 7 7 8 8 10 11 11 12 13 13 15 15 15 16 17 17 15 10 9 12 15 15 13 16
9 9 9 9 9 9 8 8 8 8 8 8 8 8 7 7 6 6 6 5 5 5 4 3 3 4 3 3 2 3 4 5 6 7 8 8 7 7 7 7 7 7 8 9 10 10 12 13 13 14 15 15 16 16 16 14 12 10 10 14 16 15 16
9 10 10 10 10 10 9 9 9 9 9 8 8 8 8 7 7 6 6 5 5 4 4 4 4 3 3 3 2 2 3 4 5 7 8 8 8 7 7 6 7 7 8 9 10 10 11 12 13 13 15 15 15 16 16 15 13 11 11 13 15 15 16
10 10 11 11 11 11 10 9 9 9 9 8 8 8 8 8 7 7 6 6 5 4 4 5 4 4 4 4 3 2 2 3 5 6 7 8 8 7 6 6 7 7 7 8 9 10 11 12 13 14 14 14 15 15 15 15 14 12 12 12 13 14 14
11 11 11 11 11 11 10 10 10 9 9 9 9 8 8 8 7 7 7 6 5 5 5 5 5 4 4 4 4 3 3 4 5 5 6 8 8 7 6 6 6 7 8 8 9 10 11 12 13 14 14 14 15 15 15 15 14 12 11 12 12 13 13
12 12 12 12 11 11 10 10 10 10 10 10 10 9 9 8 8 7 7 6 5 5 5 5 5 5 5 5 4 4 3 4 5 5 6 7 8 6 5 5 6 6 7 8 9 11 12 12 13 13 13 14 15 15 14 14 13 12 11 10 11 12 13
12 12 12 12 11 11 10 10 11 10 10 10 10 10 10 9 8 8 7 7 6 5 5 5 5 5 6 5 5 5 5 5 5 5 5 6 7 6 5 5 5 6 7 7 9 11 12 12 12 12 13 14 15 15 14 14 13 12 10 10 11 13 13
12 12 12 12 11 11 11 11 11 11 11 11 11 11 10 10 9 9 8 8 7 6 5 5 4 5 6 6 5 6 5 5 5 5 5 6 6 6 4 4 5 6 6 7 8 9 11 12 12 12 14 15 15 15 14 12 12 11 10 10 11 12 12
12 12 12 12 12 12 12 12 12 12 12 11 11 11 11 10 10 9 9 9 8 7 6 5 4 5 6 6 6 6 5 5 5 6 6 6 6 5 4 3 5 6 6 6 7 7 9 11 11 11 12 14 15 15 14 13 12 11 11 10 10 11 11
12 12 13 13 13 13 13 13 12 13 12 12 12 12 12 11 11 11 11 10 9 8 6 6 6 6 5 6 6 6 5 5 5 5 6 6 6 5 4 3 4 6 6 5 5 6 8 9 9 7 9 12 14 15 14 13 12 11 10 10 10 10 9
12 13 13 13 13 14 13 13 13 13 13 13 13 13 12 12 12 12 11 11 10 9 7 8 8 7 5 6 8 7 6 5 5 5 5 5 6 5 4 3 3 4 5 4 4 5 7 9 7 6 8 11 14 16 15 13 12 12 12 11 10 10 10
12 12 13 13 14 14 14 14 14 14 14 14 14 13 13 13 12 12 12 11 11 10 9 9 9 7 6 6 7 8 7 6 5 4 4 5 5 5 4 3 3 3 4 4 3 3 5 6 6 6 7 9 14 18 18 15 13 13 13 12 11 11 11
12 13 13 14 15 15 16 16 16 16 15 15 14 14 14 13 12 13 13 13 12 10 10 11 10 8 7 7 7 8 7 6 5 4 3 3 4 4 3 3 3 2 3 4 4 3 2 3 3 5 5 6 11 16 18 16 13 12 11 11 11 11 10
12 13 14 15 15 16 17 17 17 17 16 15 16 15 15 14 15 16 15 14 13 11 11 12 11 8 7 7 7 8 8 7 6 5 3 2 3 3 3 3 3 2 2 3 5 4 3 2 3 3 3 4 8 12 15 15 13 11 10 10 10 10 10
11 12 13 14 15 16 17 17 18 17 16 16 16 15 14 14 16 18 17 15 14 12 12 13 12 9 8 7 7 7 8 7 6 5 4 2 2 2 2 2 2 2 2 3 5 5 4 3 2 3 4 5 7 8 11 14 13 10 9 8 8 9 11
11 11 12 13 15 15 17 18 18 17 16 16 14 14 16 16 16 17 17 16 15 13 13 14 12 10 9 8 7 7 8 8 7 5 4 3 2 1 1 2 2 1 1 2 4 5 4 2 2 3 4 5 6 6 8 12 13 11 9 9 8 8 10
11 11 12 13 15 15 17 18 17 17 17 16 14 15 18 18 17 17 16 16 15 13 14 15 12 10 10 8 6 7 8 8 8 6 5 4 3 2 2 1 1 1 1 2 3 4 3 2 2 2 3 4 5 7 7 7 9 11 10 11 11 9 8
11 11 12 13 14 15 16 16 16 16 17 17 18 20 20 17 16 17 17 16 15 14 14 15 14 11 10 9 7 8 8 8 8 7 6 5 4 4 3 2 1 1 1 1 2 2 1 2 2 1 2 3 5 7 7 5 5 7 9 11 12 10 8
11 11 12 13 14 14 15 15 14 14 15 16 18 19 20 17 15 15 16 16 17 16 15 15 15 13 11 10 9 10 10 9 9 8 7 7 6 5 5 4 2 0 1 1 2 1 0 2 3 1 1 2 4 5 6 7 6 5 6 8 9 8 9
11 12 13 14 14 14 13 13 13 13 13 14 14 15 16 16 15 15 14 14 16 18 17 16 16 15 13 11 10 12 12 10 10 9 8 7 7 6 6 6 3 1 1 3 2 1 1 1 2 1 1 3 5 4 4 6 7 6 5 7 8 8 9
11 12 13 13 13 13 13 12 12 12 12 12 13 13 13 14 15 16 16 15 16 18 19 19 18 17 14 12 11 13 14 11 10 9 8 8 8 7 7 7 5 3 1 3 4 2 2 2 1 1 2 4 5 4 3 5 6 5 4 6 7 8 8
12 13 12 12 13 13 13 12 12 12 12 12 12 13 13 14 16 17 17 17 18 19 20 21 20 18 16 14 13 14 15 13 11 9 8 8 8 7 7 7 6 5 3 1 3 4 2 2 1 1 1 1 3 4 3 4 4 3 4 5 6 6 7
12 12 12 13 13 14 13 12 11 11 12 12 13 13 13 14 15 16 16 15 16 18 20 22 21 19 17 15 14 14 15 15 14 11 8 8 9 7 6 7 7 5 4 1 2 4 3 1 1 1 3 2 2 3 2 2 3 3 4 5 6 6 6
12 12 13 13 13 13 13 13 13 12 12 13 13 13 13 13 14 15 16 15 14 15 17 20 21 21 18 16 15 14 16 17 17 13 9 8 8 7 7 7 7 6 4 3 1 4 3 1 2 2 3 3 3 2 1 2 3 3 4 5 5 6 6
Wind_Direction
275 285 293 286 277 279 283 296 311 315 320 325 324 326 330 329 330 333 336 339 339 337 336 335 336 338 339 343 345 346 346 348 351 349 348 351 350 350 349 345 342 339 336 334 330 325 320 319 322 324 330 334 337 345 346 345 348 346 348 348 347 354 356
277 284 288 287 282 280 284 297 308 313 320 323 323 325 325 326 331 333 334 337 338 337 335 333 334 334 335 339 341 344 347 348 350 349 349 350 349 348 347 345 344 342 341 341 336 333 326 315 315 321 329 332 336 345 347 346 344 345 352 349 347 357 359
277 281 287 286 282 281 284 293 304 313 319 319 321 322 322 328 335 335 335 336 338 338 335 331 330 330 331 336 339 341 344 345 349 349 349 349 348 348 347 344 345 344 343 343 341 339 333 318 317 321 330 335 336 337 339 341 341 345 354 353 350 357 2
275 274 281 286 287 285 280 282 294 305 310 313 316 317 322 334 337 337 337 337 339 339 336 331 328 326 328 333 336 340 342 343 347 346 347 350 348 350 350 346 345 344 343 341 338 336 330 321 322 324 332 334 329 330 333 333 342 350 354 358 358 358 3
268 270 276 287 295 295 288 285 286 293 302 310 313 313 325 337 336 335 338 337 338 337 333 330 326 323 324 330 336 340 341 342 344 344 346 349 348 349 350 345 341 342 344 341 333 328 323 325 328 328 338 335 328 331 330 327 344 358 355 2 4 2 4
249 263 270 276 280 281 282 280 282 294 303 305 307 312 324 334 333 332 336 335 333 332 329 327 324 323 322 327 334 339 341 341 343 343 343 345 346 347 347 344 338 341 346 341 331 327 326 332 336 336 342 339 333 331 328 330 347 357 359 6 7 4 4
234 241 252 260 256 250 254 260 273 289 295 294 296 306 317 324 325 328 329 329 330 329 329 327 324 322 320 324 331 337 340 340 339 340 339 340 342 343 344 343 337 340 346 341 334 335 337 339 341 341 341 338 336 334 334 341 351 357 2 6 8 7 5
234 237 243 251 248 241 239 243 256 267 278 288 293 295 303 310 315 322 322 325 330 330 330 330 325 322 321 323 329 333 336 338 336 335 336 337 338 340 342 342 337 340 346 343 339 343 344 342 340 338 337 335 338 341 339 343 351 2 4 2 9 12 7
228 236 243 247 242 235 235 242 247 253 265 278 286 286 290 299 308 316 319 323 332 332 331 329 324 322 320 321 326 329 332 335 331 331 333 335 336 337 341 341 338 341 348 346 345 349 350 349 346 343 340 334 338 344 343 343 348 1 5 3 9 13 10
222 228 237 244 241 233 236 243 245 250 257 265 276 280 282 288 295 307 316 323 331 334 331 324 319 317 315 318 324 327 331 331 325 328 331 332 335 337 340 343 340 345 350 347 349 355 355 354 355 355 354 347 342 342 342 343 345 354 3 5 7 9 9
224 227 232 240 240 236 237 239 240 246 250 256 265 270 274 278 283 295 309 322 331 333 329 322 316 312 312 318 322 325 331 328 322 327 331 332 335 338 341 343 343 348 351 349 353 360 360 359 358 358 0 357 353 351 344 339 345 356 0 4 11 11 8
224 227 231 236 240 242 243 242 241 243 247 252 255 259 266 271 276 287 302 318 328 330 327 321 315 313 313 319 324 328 333 330 325 328 333 335 337 339 341 343 346 351 350 351 359 4 2 0 359 359 1 1 359 358 354 343 341 358 1 1 8 15 12
222 225 228 233 239 244 248 248 245 242 243 247 249 251 258 263 268 278 294 310 321 328 325 319 315 310 307 316 328 333 334 334 334 335 338 339 339 341 341 341 348 350 349 351 356 2 3 359 358 1 2 2 2 2 359 351 338 350 360 0 7 18 16
222 224 226 231 237 243 246 245 244 242 243 245 246 248 253 254 257 266 282 296 312 322 319 310 305 298 292 301 323 336 339 340 346 347 345 345 345 346 342 340 348 349 347 349 350 354 0 358 357 1 2 2 3 4 2 354 340 339 356 6 15 24 19
222 224 227 231 236 240 240 240 241 242 244 245 241 245 250 247 247 257 269 282 298 310 310 297 284 277 279 291 311 334 341 345 352 354 353 352 350 350 346 343 350 349 342 344 346 349 357 357 356 360 3 3 2 4 3 357 345 337 351 10 18 23 21
223 225 228 233 237 240 240 240 241 241 243 242 237 241 246 244 245 253 261 273 285 298 305 292 277 267 273 289 302 322 337 340 349 354 356 357 354 350 349 347 353 353 342 342 346 351 356 355 355 2 4 3 2 2 3 2 358 349 352 9 17 18 19
225 226 230 235 239 241 242 243 243 242 243 243 239 240 242 242 247 253 260 271 277 288 301 291 278 268 265 279 294 307 324 332 341 348 353 357 353 349 350 348 353 354 345 345 349 352 357 356 357 4 5 1 3 3 2 5 5 357 357 6 14 18 20
227 229 232 237 241 243 244 245 245 244 244 244 242 242 242 242 246 252 257 266 273 285 296 291 280 270 261 265 280 295 310 319 331 341 346 351 350 348 348 346 351 355 351 353 353 351 355 356 358 5 7 4 4 4 5 6 3 360 7 11 8 11 21
228 232 234 237 241 243 245 246 246 246 245 245 244 242 243 242 242 249 255 258 266 280 290 291 282 270 263 261 265 277 286 296 315 328 335 346 348 344 343 342 345 350 352 357 356 351 355 359 360 4 8 7 6 5 6 5 360 1 13 17 11 11 21
228 232 235 237 240 243 245 245 245 246 246 246 244 242 244 243 240 246 252 252 257 269 282 288 281 267 262 260 261 269 277 284 299 313 320 334 344 342 340 341 341 344 350 356 356 353 356 358 359 4 9 8 7 7 7 4 2 6 13 16 19 20 22
228 232 235 237 238 240 243 244 243 244 245 245 245 244 246 245 241 243 245 245 247 255 268 276 274 269 265 262 261 264 271 283 294 303 311 322 335 339 337 344 346 343 344 352 358 357 355 355 356 3 11 11 8 8 7 6 7 10 17 23 24 22 22
228 231 233 236 238 239 241 243 243 243 242 243 243 244 244 242 241 242 242 240 240 245 255 257 261 275 270 259 261 266 269 279 291 303 311 319 330 335 335 342 348 350 348 353 2 357 352 356 360 4 11 12 10 8 5 11 19 16 18 30 32 25 26
229 230 232 235 237 238 240 242 243 242 242 241 240 240 238 236 236 240 241 239 237 240 242 241 257 283 275 250 252 264 270 272 282 298 307 318 328 330 331 331 338 352 359 355 353 354 359 7 15 25 28 24 21 15 8 13 25 27 27 34 34 28 32
231 232 234 235 237 239 240 241 242 242 240 240 239 237 234 234 236 239 241 240 238 240 238 237 256 284 281 252 244 250 264 267 272 288 297 313 326 326 327 331 329 342 355 351 341 349 6 13 28 53 45 35 34 32 25 18 18 27 33 31 29 29 34
239 239 238 237 238 239 239 239 240 240 238 237 236 233 231 233 238 241 241 240 241 243 240 241 257 277 282 267 243 238 253 261 258 270 285 305 324 326 321 325 334 336 349 2 1 1 10 12 33 52 37 31 37 37 33 26 19 24 28 24 28 32 27
247 246 242 241 240 237 237 238 238 237 237 235 232 230 229 230 235 238 237 236 240 244 240 243 256 268 275 277 254 236 241 251 250 251 264 295 317 326 317 314 333 347 353 9 13 14 20 26 46 45 28 30 40 37 33 27 24 28 31 28 34 34 21
250 250 246 243 240 238 238 237 236 235 233 231 229 228 225 224 228 231 230 229 233 238 236 241 252 260 266 277 266 242 234 237 238 234 238 278 308 316 315 312 326 351 7 14 9 5 12 44 63 51 32 36 43 42 36 28 25 31 34 35 37 36 31
260 260 257 251 246 245 245 243 240 236 232 230 229 225 223 225 227 228 227 225 226 229 232 239 249 253 258 270 267 245 230 226 224 218 218 240 277 289 297 304 315 347 14 10 6 9 12 19 42 55 47 37 41 50 43 32 29 33 38 41 44 45 46
267 265 263 258 252 250 251 249 245 240 236 233 226 223 229 233 231 228 225 222 222 224 230 238 244 244 249 260 256 238 224 218 215 207 205 211 208 218 261 290 298 323 24 360 352 15 31 6 358 46 52 40 40 51 45 33 29 30 38 49 55 58 53
272 268 263 259 255 252 251 250 246 239 235 228 221 227 237 236 231 230 226 220 218 219 226 236 239 238 245 250 235 221 218 215 212 203 197 198 188 180 202 231 271 306 20 355 332 9 37 330 311 33 57 42 44 48 47 43 35 30 34 48 55 61 64
283 278 271 266 262 258 255 254 248 238 231 229 231 238 244 240 233 233 229 219 214 214 222 234 237 234 239 241 220 207 213 214 209 203 195 191 182 179 185 172 171 304 2 333 311 360 31 302 308 65 69 41 49 52 47 51 52 42 41 47 50 55 62
291 287 282 277 272 268 264 261 255 242 237 238 237 239 242 241 236 235 230 221 218 219 220 228 232 231 234 237 219 205 210 213 208 204 197 186 179 179 179 168 164 216 45 3 307 310 295 312 339 56 90 44 64 64 50 44 42 45 61 65 61 64 66
297 293 290 286 283 278 273 269 263 254 250 248 241 238 239 236 232 233 228 217 220 225 222 221 227 228 229 233 222 208 207 210 207 205 199 185 178 182 183 176 174 181 87 55 7 309 248 291 351 11 356 41 54 45 38 49 47 44 65 81 81 81 76
308 301 296 293 290 286 282 276 270 263 258 253 247 244 241 235 235 235 226 216 221 229 227 224 226 226 225 229 225 212 207 209 207 203 197 187 181 185 188 177 168 176 129 60 29 352 279 231 172 78 42 46 47 35 28 49 58 62 75 85 86 84 80
318 310 305 303 299 295 291 286 277 270 267 261 254 250 246 246 248 242 228 221 222 228 231 229 226 224 224 227 226 215 207 205 206 201 194 189 186 187 185 172 168 187 191 89 26 360 324 231 199 117 139 60 49 61 60 40 48 79 92 90 86 77 72
326 321 319 316 309 302 300 296 287 281 280 276 266 259 256 257 254 246 237 229 221 223 229 229 225 224 224 225 226 217 206 200 199 196 189 186 189 189 181 169 176 197 203 170 11 354 341 248 241 231 206 189 69 79 88 46 50 88 101 99 95 84 73
332 329 327 324 317 311 309 306 299 294 291 286 278 273 270 266 259 252 248 240 222 213 216 218 221 223 223 224 225 215 205 203 199 194 188 190 192 187 177 180 194 210 213 203 318 354 347 242 218 216 197 165 124 131 151 85 83 111 126 117 103 90 78